[[{"header":{"parameterUnit":"m.s-1","parameterCategory":1,"la1":30.2991,"la2":30.254,"lo1":-89.0895,"lo2":-89.0444,"dy":0.0017,"dx":0.0017,"nx":28,"ny":28,"refTime":"2025-09-03T03:00:00:Z","depth":0,"parameterNumber":2,"parameterNumberName":"U-component_of_WINDS"},"data":[0,0,0,0,0,0,0,0,0,0,0,0,0,0,0,0,0,0,0,0,0,0,0,0,0,0,0,0,0,0,0,0,0,0,0,0,0,0,0,0,0,0,0,0,0,0,0,0,0,0,0,0,0,0,0,0,0,0,-1.9162,-1.9162,0,-1.9143,-1.9143,-1.9143,-1.9041,-1.9038,-1.9036,-1.9033,-1.9016,-1.9018,-1.902,0,0,0,0,0,0,0,0,0,0,0,0,0,-1.9113,-1.9114,-1.9162,-1.9162,-1.9161,-1.9143,-1.9143,-1.9143,-1.9041,-1.9038,-1.9035,-1.9032,-1.9016,-1.9018,-1.902,0,0,0,0,0,0,0,0,0,0,0,0,0,-1.9118,-1.9115,-1.9162,-1.9108,-1.9103,-1.9143,-1.9143,-1.9143,-1.9042,-1.9038,-1.9034,-1.9031,-1.9015,-1.9018,-1.902,-1.911,0,0,-1.9029,-1.903,0,0,0,0,0,0,0,0,-1.9118,-1.912,-1.9117,-1.9112,-1.9107,-1.909,-1.9119,-1.9132,-1.9043,-1.9065,-1.9033,-1.9029,-1.9044,-1.9044,-1.9049,-1.911,-1.9109,-1.9029,-1.903,-1.9032,-1.9032,0,0,0,0,0,0,0,-1.9118,-1.912,-1.9154,-1.9117,-1.9111,-1.9087,-1.9083,-1.9121,-1.9076,-1.9063,-1.9056,-1.9055,-1.9041,-1.9046,-1.9048,-1.9109,-1.9029,-1.9031,-1.9033,-1.9034,-1.9245,-1.9248,0,0,0,0,0,0,-1.9125,-1.9121,-1.9155,-1.9154,-1.9103,-1.909,-1.9087,-1.9099,-1.9075,-1.9067,-1.9058,-1.905,-1.9043,-1.9044,-1.9047,-1.9151,-1.9032,-1.9034,-1.9036,-1.9241,-1.9246,-1.925,0,0,0,0,0,0,-1.9124,-1.9129,-1.9156,-1.9135,-1.9137,-1.9095,-1.911,-1.9101,-1.9106,-1.9071,-1.9062,-1.9072,-1.9041,-1.9043,-1.9096,-1.9149,-1.9035,-1.9038,-1.9236,-1.9242,-1.9248,-1.9361,0,0,0,0,0,0,-1.9123,-1.9129,-1.9162,-1.9137,-1.9138,-1.9204,-1.9113,-1.9103,-1.9111,-1.9101,-1.9082,-1.9075,-1.9038,-1.9092,-1.9098,-1.9151,-1.904,-1.9231,-1.9239,-1.9246,-1.9352,-1.937,-1.9385,0,0,0,0,0,-1.9122,-1.9195,-1.9164,-1.9169,-1.9179,-1.9208,-1.9209,-1.9164,-1.9116,-1.9149,-1.9127,-1.9076,-1.9143,-1.9098,-1.9104,-1.9159,-1.9227,-1.9237,-1.9245,-1.9345,-1.9366,-1.9385,0,0,0,0,0,0,-1.9227,-1.919,-1.9156,-1.9223,-1.9219,-1.919,-1.9231,-1.9188,-1.9198,-1.9188,-1.9133,-1.913,-1.9191,-1.918,-1.9131,-1.9246,-1.9176,-1.9187,-1.925,-1.927,-1.9287,-1.9288,-1.9042,0,0,0,0,0,-1.9258,-1.9284,-1.9251,-1.9313,-1.9313,-1.9273,-1.9284,-1.925,-1.9244,-1.9242,-1.9223,-1.922,-1.924,-1.9255,-1.9272,-1.9351,-1.9346,-1.9391,-1.9408,-1.9422,-1.9431,-1.9473,-1.9494,-1.9279,-1.9279,-1.9279,0,0,-1.9322,-1.9305,-1.9325,-1.9334,-1.9327,-1.9356,-1.9272,-1.9306,-1.9327,-1.9247,-1.9295,-1.9283,-1.9276,-1.9343,-1.9371,-1.9335,-1.949,-1.9433,-1.9444,-1.9446,-1.9485,-1.9505,-1.9523,-1.9285,-1.9284,-1.9283,0,0,-1.9454,-1.9444,-1.9495,-1.949,-1.9481,-1.9454,-1.9467,-1.9445,-1.9433,-1.9481,-1.9422,-1.9448,-1.9483,-1.9481,-1.9485,-1.962,-1.9573,-1.9627,-1.9713,-1.9755,-1.9771,-1.9786,-1.9835,-1.9852,-1.9637,-1.9637,-1.9637,0,-1.9535,-1.9575,-1.9527,-1.9565,-1.9571,-1.9501,-1.9553,-1.9551,-1.9548,-1.9555,-1.9515,-1.956,-1.955,-1.9616,-1.9649,-1.9655,-1.9668,-1.9628,-1.9773,-1.9787,-1.98,-1.9846,-1.9864,-1.9643,-1.9643,-1.9642,-1.9641,0,-1.9676,-1.9705,-1.9748,-1.9747,-1.9758,-1.9803,-1.9763,-1.978,-1.9746,-1.9724,-1.9775,-1.9762,-1.9775,-1.9789,-1.9756,-1.9851,-1.9829,-1.9782,-1.9711,-1.9828,-1.987,-1.9887,-1.9653,-1.965,-1.9649,-1.9647,0,0,-1.987,-1.9844,-1.986,-1.986,-1.9846,-1.9868,-1.9911,-1.9924,-1.9941,-1.9942,-1.9977,-2.0011,-1.9968,-1.9973,-1.9939,-1.9976,-2.0085,-1.9925,-1.9924,-1.9955,-2.019,-2.0225,-2.0245,-2.0055,-2.0058,-2.006,-2.019,0,-1.9996,-2.0067,-2.0026,-2.0103,-2.013,-2.0065,-2.0103,-2.01,-2.0081,-2.0103,-2.0082,-2.0107,-2.0048,-2.0051,-2.0085,-2.0064,-2.0131,-2.0055,-2.0088,-2.0089,-2.009,-2.0267,-2.0303,-2.0426,-2.0206,-2.0209,-2.0211,0,-2.0152,-2.016,-2.024,-2.0223,-2.0233,-2.0267,-2.0277,-2.0298,-2.0293,-2.0277,-2.0284,-2.0243,-2.0285,-2.0217,-2.0275,-2.0224,-2.0236,-2.0229,-2.0232,-2.0233,-2.0156,-2.0272,-2.0464,-2.0483,-2.0236,-2.0234,-2.0232,0,-2.0286,-2.0317,-2.0369,-2.0371,-2.0352,-2.0378,-2.0372,-2.0364,-2.0375,-2.0384,-2.0391,-2.0405,-2.0413,-2.0426,-2.039,-2.0343,-2.0454,-2.0382,-2.0443,-2.0444,-2.0468,-2.0466,-2.0664,-2.0477,-2.0477,-2.0476,-2.0476,0,-2.043,-2.0482,-2.043,-2.0462,-2.0518,-2.0472,-2.0529,-2.0516,-2.051,-2.054,-2.0485,-2.0514,-2.0465,-2.049,-2.0463,-2.0516,-2.052,-2.0509,-2.0501,-2.0514,-2.0515,-2.0519,-2.051,-2.0481,-2.048,-2.0479,-2.0478,0,-2.0588,-2.0556,-2.0608,-2.0587,-2.0583,-2.0625,-2.0607,-2.0637,-2.0616,-2.0654,-2.066,-2.0627,-2.0654,-2.062,-2.0643,-2.0625,-2.0698,-2.0677,-2.0699,-2.0693,-2.0755,-2.075,-2.0962,-2.0988,-2.0785,-2.0787,-2.0788,0,-2.0682,-2.072,-2.0703,-2.0719,-2.0715,-2.0741,-2.0753,-2.071,-2.0724,-2.0723,-2.0754,-2.0776,-2.079,-2.0836,-2.0815,-2.0833,-2.0813,-2.0886,-2.0815,-2.0827,-2.0814,-2.0811,-2.0815,-2.09,-2.0903,-2.0904,-2.0906,0,-2.0851,-2.0834,-2.0852,-2.0865,-2.0881,-2.0889,-2.0894,-2.091,-2.0865,-2.0885,-2.0911,-2.0923,-2.0947,-2.097,-2.0983,-2.0978,-2.0935,-2.0929,-2.0944,-2.0956,-2.0967,-2.0962,-2.0738,-2.0924,-2.0922,-2.0921,-2.092,-2.0919,-2.0979,-2.1011,-2.1004,-2.1027,-2.1026,-2.1033,-2.106,-2.1043,-2.1064,-2.108,-2.1054,-2.1087,-2.1085,-2.1097,-2.1097,-2.1124,-2.1092,-2.1114,-2.1119,-2.1125,-2.1135,-2.0964,-2.1126,-2.1126,-2.1125,-2.1125,-2.1124,0,-2.1146,-2.1139,-2.1161,-2.1169,-2.1188,-2.1147,-2.115,-2.1169,-2.1199,-2.1199,-2.1216,-2.1248,-2.127,-2.1252,-2.1271,-2.1296,-2.1278,-2.1303,-2.13,-2.13,-2.1162,-2.1147,-2.1318,-2.1318,-2.1318,-2.1318,-2.1318,-2.1318,-2.1234,-2.1286,-2.1268,-2.132,-2.1313,-2.1345,-2.1351,-2.1357,-2.1357,-2.1395,-2.1413,-2.1401,-2.1395,-2.1414,-2.1434,-2.1428,-2.1438,-2.147,-2.1457,-2.1328,-2.1309,-2.1291,-2.1277,-2.1473,-2.1473,-2.1593,-2.1594,-2.1595]},{"header":{"parameterUnit":"m.s-1","parameterCategory":1,"la1":30.2991,"la2":30.254,"lo1":-89.0895,"lo2":-89.0444,"dy":0.0017,"dx":0.0017,"nx":28,"ny":28,"refTime":"2025-09-03T03:00:00:Z","depth":0,"parameterNumber":3,"parameterNumberName":"V-component_of_WINDS"},"data":[0,0,0,0,0,0,0,0,0,0,0,0,0,0,0,0,0,0,0,0,0,0,0,0,0,0,0,0,0,0,0,0,0,0,0,0,0,0,0,0,0,0,0,0,0,0,0,0,0,0,0,0,0,0,0,0,0,0,1.0669,1.0669,0,1.0698,1.0698,1.0698,1.0745,1.0745,1.0746,1.0747,1.0774,1.0774,1.0774,0,0,0,0,0,0,0,0,0,0,0,0,0,1.0652,1.0652,1.0669,1.0669,1.067,1.0698,1.0698,1.0699,1.0744,1.0745,1.0746,1.0747,1.0774,1.0774,1.0774,0,0,0,0,0,0,0,0,0,0,0,0,0,1.0668,1.0652,1.0669,1.0696,1.0699,1.0698,1.0698,1.0699,1.0744,1.0745,1.0747,1.0748,1.0775,1.0774,1.0774,1.0749,0,0,1.0774,1.0774,0,0,0,0,0,0,0,0,1.0667,1.0668,1.0692,1.0694,1.0697,1.0719,1.0702,1.0715,1.0744,1.0727,1.0747,1.0749,1.0755,1.0756,1.0759,1.075,1.0751,1.0774,1.0774,1.0774,1.0774,0,0,0,0,0,0,0,1.0665,1.0667,1.068,1.0692,1.0695,1.0706,1.071,1.0705,1.0733,1.0728,1.0732,1.0735,1.0757,1.0759,1.076,1.0751,1.0774,1.0774,1.0774,1.0774,1.0722,1.0721,0,0,0,0,0,0,1.0661,1.0666,1.0679,1.0681,1.0685,1.0705,1.0709,1.0711,1.0734,1.0738,1.0734,1.0737,1.0759,1.076,1.0761,1.0732,1.0774,1.0774,1.0774,1.0723,1.0722,1.072,0,0,0,0,0,0,1.066,1.0661,1.0678,1.0675,1.0678,1.0704,1.0705,1.071,1.0713,1.0738,1.0743,1.0731,1.076,1.0761,1.0751,1.0733,1.0774,1.0774,1.0725,1.0723,1.0721,1.0673,0,0,0,0,0,0,1.0659,1.0661,1.0652,1.0674,1.0678,1.0668,1.0704,1.071,1.0713,1.0717,1.0736,1.0741,1.0761,1.0751,1.0751,1.0734,1.0774,1.0727,1.0724,1.0722,1.0676,1.0669,1.0664,0,0,0,0,0,1.0659,1.0637,1.0651,1.0652,1.0667,1.0667,1.0669,1.0693,1.0711,1.0702,1.0718,1.074,1.0736,1.075,1.075,1.0732,1.0728,1.0725,1.0722,1.0679,1.0671,1.0664,0,0,0,0,0,0,1.061,1.064,1.0656,1.0641,1.0651,1.0675,1.0664,1.0684,1.0689,1.0692,1.0722,1.0725,1.0711,1.0721,1.0737,1.0709,1.0735,1.0732,1.0702,1.0695,1.0689,1.0686,1.0774,0,0,0,0,0,1.0598,1.0597,1.0623,1.0606,1.0611,1.0636,1.0637,1.0655,1.0667,1.0671,1.0686,1.0696,1.0697,1.0697,1.0699,1.0678,1.0682,1.0666,1.066,1.0655,1.0651,1.064,1.0633,1.071,1.071,1.071,0,0,1.0573,1.0589,1.0586,1.0597,1.0607,1.0604,1.064,1.0635,1.0633,1.067,1.0662,1.0673,1.0686,1.067,1.0664,1.0678,1.0631,1.0651,1.0647,1.0646,1.0636,1.0629,1.0623,1.0708,1.0709,1.0709,0,0,1.0524,1.0536,1.0524,1.0534,1.0549,1.0566,1.0563,1.0584,1.0593,1.0585,1.0613,1.0611,1.0612,1.062,1.0624,1.0579,1.0599,1.0579,1.0546,1.0535,1.0529,1.0523,1.0506,1.05,1.0576,1.0576,1.0576,0,1.049,1.0487,1.0515,1.0509,1.0512,1.0548,1.0535,1.0543,1.0557,1.0559,1.0575,1.0577,1.0588,1.0574,1.0563,1.0566,1.0563,1.0576,1.0528,1.0523,1.0518,1.0502,1.0495,1.0573,1.0573,1.0574,1.0574,0,1.0444,1.0441,1.043,1.0443,1.0446,1.0437,1.0463,1.0462,1.048,1.0495,1.0487,1.0502,1.0507,1.0506,1.0523,1.0494,1.0502,1.0522,1.0549,1.0507,1.0493,1.0487,1.0569,1.057,1.0571,1.0572,0,0,1.0364,1.0394,1.0389,1.0396,1.0416,1.0414,1.0406,1.0412,1.041,1.042,1.0413,1.0414,1.0433,1.0437,1.0456,1.0446,1.0408,1.0468,1.0468,1.0455,1.0376,1.036,1.0352,1.0423,1.0422,1.0421,1.0375,0,1.0318,1.0306,1.0331,1.0313,1.0311,1.0345,1.0338,1.0348,1.0363,1.0363,1.0379,1.0378,1.0404,1.0407,1.0399,1.0415,1.0393,1.0419,1.0415,1.0415,1.0409,1.0345,1.0327,1.0283,1.0369,1.0368,1.0368,0,1.0262,1.0269,1.0251,1.0272,1.0272,1.0265,1.0272,1.0272,1.0285,1.0297,1.0302,1.0324,1.0317,1.0345,1.0335,1.0352,1.0352,1.036,1.0359,1.0358,1.0387,1.034,1.0269,1.0262,1.0359,1.036,1.036,0,1.0204,1.0209,1.0198,1.0203,1.0228,1.0222,1.0232,1.0246,1.0248,1.0255,1.0257,1.0262,1.0265,1.0268,1.0291,1.0309,1.0278,1.0308,1.0286,1.0285,1.0276,1.0276,1.0202,1.0279,1.0279,1.0279,1.028,0,1.0148,1.0135,1.0172,1.0166,1.0152,1.0182,1.0167,1.018,1.0193,1.0189,1.0219,1.0214,1.0246,1.0245,1.0263,1.0251,1.0252,1.026,1.0265,1.0256,1.0255,1.0256,1.0259,1.0278,1.0278,1.0278,1.0279,0,1.008,1.0104,1.0095,1.012,1.0125,1.0114,1.0135,1.0129,1.0146,1.0141,1.0141,1.0167,1.0167,1.0191,1.0196,1.0208,1.0188,1.0199,1.0183,1.0186,1.0163,1.0164,1.0085,1.0076,1.016,1.0159,1.0159,0,1.0042,1.0033,1.0057,1.0057,1.0065,1.0065,1.0067,1.0096,1.0097,1.0112,1.0104,1.0107,1.0111,1.0109,1.0128,1.0132,1.0142,1.0114,1.0143,1.0134,1.014,1.0139,1.0138,1.0107,1.0106,1.0106,1.0105,0,0.9972,0.9985,0.9988,0.9995,0.9997,1.0004,1.0012,1.001,1.0042,1.0042,1.0043,1.0045,1.0051,1.0053,1.006,1.007,1.0092,1.0096,1.0091,1.0081,1.0072,1.0075,1.0165,1.0097,1.0098,1.0099,1.0099,1.0099,0.9917,0.991,0.9926,0.9928,0.9938,0.9945,0.9941,0.9958,0.9959,0.9966,0.9983,0.9981,0.9995,1.0007,1.0015,1.0013,1.0027,1.002,1.0017,1.0015,1.001,1.0074,1.0015,1.0015,1.0015,1.0015,1.0015,0,0.9847,0.9859,0.9861,0.9872,0.9874,0.9896,0.9907,0.9906,0.9904,0.9915,0.9919,0.9919,0.9922,0.9941,0.9945,0.994,0.995,0.994,0.994,0.9941,0.9998,1.0001,0.9932,0.9932,0.9932,0.9932,0.9932,0.9932,0.981,0.98,0.9815,0.9809,0.9822,0.982,0.9824,0.9831,0.984,0.984,0.9842,0.9855,0.9869,0.9875,0.9878,0.9883,0.9883,0.9869,0.9877,0.9929,0.9937,0.9945,0.9948,0.9869,0.9869,0.9821,0.9821,0.982]}]]